DW8379 Weather Reports


time (UTC)temp
C
wind
direction
speed
KPH
gust
KPH
rain 1hr
cm
rain 24hr
cm
rain mn
cm
humidity
%
barometer
mb
20260510143905 8 209 1.6 3.2 0.00 0.03 0.00 89 1030.7
20260510143405 8 209 1.6 3.2 0.00 0.03 0.00 89 1030.7
20260510142905 8 209 1.6 3.2 0.00 0.03 0.00 89 1030.7
20260510142405 8 209 1.6 4.8 0.00 0.03 0.00 89 1030.7
20260510141905 8 209 3.2 4.8 0.00 0.03 0.00 89 1030.7
20260510141405 8 209 0.0 0.0 0.00 0.03 0.00 89 1030.7
20260510140905 8 209 0.0 0.0 0.00 0.03 0.00 89 1030.7
20260510140405 8 209 0.0 0.0 0.00 0.03 0.00 89 1030.7
20260510135905 8 209 0.0 0.0 0.00 0.03 0.00 89 1030.7
20260510135405 8 209 0.0 0.0 0.00 0.03 0.00 89 1030.7
20260510134905 8 209 0.0 0.0 0.00 0.03 0.00 89 1030.7
20260510134405 8 209 0.0 0.0 0.00 0.03 0.00 89 1030.6
20260510133905 8 209 0.0 0.0 0.00 0.03 0.00 89 1030.7
20260510133405 8 209 0.0 0.0 0.00 0.03 0.00 89 1030.8
20260510132905 8 209 0.0 0.0 0.00 0.03 0.00 89 1030.8
20260510132405 9 209 0.0 0.0 0.00 0.03 0.00 89 1030.8
20260510131904 9 209 0.0 0.0 0.00 0.03 0.00 89 1030.8
20260510131405 9 209 0.0 0.0 0.00 0.03 0.00 89 1030.8
20260510130905 9 209 0.0 0.0 0.00 0.03 0.00 89 1030.8
20260510130405 9 209 0.0 0.0 0.00 0.03 0.00 89 1030.8
20260510125905 9 209 0.0 0.0 0.00 0.03 0.00 89 1030.9
20260510125405 9 209 0.0 0.0 0.00 0.03 0.00 89 1030.9
20260510124905 9 209 0.0 0.0 0.00 0.03 0.00 89 1030.9
20260510124405 9 209 0.0 0.0 0.00 0.03 0.00 89 1030.9
20260510123905 9 209 0.0 0.0 0.00 0.03 0.00 89 1030.9
20260510123405 9 209 0.0 0.0 0.00 0.03 0.00 89 1031.0
20260510122905 10 209 0.0 0.0 0.00 0.03 0.00 89 1031.0
20260510122405 10 209 0.0 0.0 0.00 0.03 0.00 89 1031.0
20260510121905 10 209 0.0 0.0 0.00 0.03 0.00 89 1031.0
20260510121405 10 209 0.0 0.0 0.00 0.03 0.00 88 1031.0
20260510120904 10 209 0.0 0.0 0.00 0.03 0.00 89 1030.9
20260510120405 10 209 0.0 0.0 0.00 0.03 0.00 89 1030.9
20260510115905 10 209 0.0 0.0 0.00 0.03 0.00 88 1030.9
20260510115405 10 209 0.0 0.0 0.00 0.03 0.00 88 1030.9
20260510114905 10 209 0.0 0.0 0.00 0.03 0.00 88 1030.9
20260510114405 10 209 0.0 0.0 0.00 0.03 0.00 88 1030.9
20260510113905 10 209 0.0 0.0 0.00 0.03 0.00 88 1030.8
20260510113405 10 209 0.0 0.0 0.00 0.03 0.00 88 1030.7
20260510112905 10 209 0.0 0.0 0.00 0.03 0.00 88 1030.8
20260510112405 10 209 0.0 0.0 0.00 0.03 0.00 88 1030.7
20260510111904 10 209 0.0 0.0 0.00 0.03 0.00 88 1030.7
20260510111404 10 209 0.0 0.0 0.00 0.03 0.00 88 1030.7
20260510110905 11 209 0.0 0.0 0.00 0.03 0.00 88 1030.7
20260510110405 11 209 0.0 0.0 0.00 0.03 0.00 88 1030.6
20260510105905 11 209 0.0 0.0 0.00 0.03 0.00 88 1030.6
20260510105404 11 209 0.0 0.0 0.00 0.03 0.00 88 1030.6
20260510104905 11 209 0.0 0.0 0.00 0.03 0.00 88 1030.7
20260510104405 11 209 0.0 0.0 0.00 0.03 0.00 88 1030.6
20260510103905 11 209 0.0 0.0 0.00 0.03 0.00 88 1030.6
20260510103404 11 209 0.0 1.6 0.00 0.03 0.00 88 1030.5
20260510102905 11 209 0.0 1.6 0.00 0.03 0.00 87 1030.4
20260510102405 11 209 1.6 3.2 0.00 0.03 0.00 87 1030.4
20260510101905 11 209 1.6 3.2 0.00 0.03 0.00 87 1030.4
20260510101405 11 209 1.6 3.2 0.00 0.03 0.00 87 1030.4
20260510100905 11 209 0.0 1.6 0.00 0.03 0.00 87 1030.5
20260510100405 12 209 1.6 3.2 0.00 0.03 0.00 87 1030.5
20260510095904 12 209 3.2 4.8 0.00 0.03 0.00 87 1030.4
20260510095405 12 209 3.2 4.8 0.00 0.03 0.00 87 1030.4
20260510094905 12 209 3.2 4.8 0.00 0.03 0.00 87 1030.4
20260510094405 12 207 4.8 8.0 0.00 0.03 0.00 87 1030.3
20260510093905 12 217 4.8 8.0 0.00 0.03 0.00 87 1030.2
20260510093404 12 222 3.2 4.8 0.00 0.03 0.00 87 1030.2
20260510092905 12 224 3.2 4.8 0.00 0.03 0.00 87 1030.2
20260510092405 12 231 3.2 4.8 0.00 0.03 0.00 87 1030.1
20260510091905 12 232 1.6 3.2 0.00 0.03 0.00 87 1030.0
20260510091405 12 232 3.2 4.8 0.00 0.03 0.00 86 1030.0
20260510090904 12 233 4.8 4.8 0.00 0.03 0.00 87 1029.9
20260510090404 12 236 1.6 4.8 0.00 0.03 0.00 86 1029.8
20260510085905 12 218 3.2 8.0 0.00 0.03 0.00 86 1029.8
20260510085404 13 203 0.0 0.0 0.00 0.03 0.00 85 1029.7
20260510084905 13 203 0.0 0.0 0.00 0.03 0.00 85 1029.6
20260510084404 13 203 0.0 0.0 0.00 0.03 0.00 84 1029.5
20260510083904 13 203 0.0 0.0 0.00 0.03 0.00 83 1029.4
20260510083405 13 203 0.0 0.0 0.00 0.03 0.00 83 1029.4
20260510082904 14 203 0.0 0.0 0.00 0.03 0.00 83 1029.4
20260510082404 14 203 0.0 0.0 0.00 0.03 0.00 83 1029.3
20260510081905 14 203 0.0 0.0 0.00 0.03 0.00 83 1029.3
20260510081404 15 203 0.0 0.0 0.00 0.03 0.00 82 1029.3
20260510080904 15 203 0.0 0.0 0.00 0.03 0.00 82 1029.3
20260510080404 15 203 0.0 0.0 0.00 0.03 0.00 81 1029.3
20260510075905 15 203 0.0 0.0 0.00 0.03 0.00 80 1029.2
20260510075404 15 203 0.0 0.0 0.00 0.03 0.00 80 1029.0
20260510074905 16 203 0.0 1.6 0.00 0.03 0.00 79 1029.0
20260510074404 16 203 1.6 3.2 0.00 0.03 0.00 79 1028.9
20260510073904 16 203 3.2 4.8 0.00 0.03 0.00 78 1028.9
20260510073404 16 203 3.2 4.8 0.00 0.03 0.00 78 1028.9
20260510072904 16 203 3.2 4.8 0.00 0.03 0.00 77 1028.8
20260510072405 16 203 3.2 4.8 0.00 0.03 0.00 77 1028.8
20260510071905 17 203 3.2 4.8 0.00 0.03 0.00 77 1028.8
20260510071405 17 203 3.2 4.8 0.00 0.03 0.00 76 1028.8
20260510070905 17 203 3.2 4.8 0.00 0.03 0.00 76 1028.8
20260510070405 17 203 3.2 4.8 0.00 0.03 0.00 75 1028.8
20260510065904 17 198 3.2 4.8 0.00 0.03 0.00 75 1028.8
20260510065405 17 193 3.2 4.8 0.00 0.03 0.00 75 1028.7
20260510064904 17 193 4.8 4.8 0.00 0.03 0.00 75 1028.7
20260510064405 17 184 3.2 4.8 0.00 0.03 0.00 75 1028.8
20260510063904 17 178 3.2 4.8 0.00 0.03 0.00 74 1028.8
20260510063404 17 180 4.8 8.0 0.00 0.03 0.00 75 1028.8
20260510062905 17 175 4.8 4.8 0.00 0.03 0.00 75 1028.7
20260510062405 17 173 3.2 4.8 0.00 0.03 0.00 74 1028.7
20260510061905 17 174 3.2 4.8 0.00 0.03 0.00 75 1028.8
20260510061404 17 173 3.2 4.8 0.00 0.03 0.00 75 1028.8
20260510060905 17 174 0.0 4.8 0.00 0.03 0.00 75 1028.8
20260510060404 17 187 4.8 8.0 0.00 0.03 0.00 75 1028.8
20260510055904 17 203 3.2 8.0 0.00 0.03 0.00 75 1028.8
20260510055404 17 172 4.8 8.0 0.00 0.03 0.00 75 1028.8
20260510054905 17 193 0.0 4.8 0.00 0.03 0.00 76 1028.8
20260510054404 17 193 3.2 4.8 0.00 0.03 0.00 76 1028.8
20260510053905 17 160 4.8 8.0 0.00 0.03 0.00 75 1028.8
20260510053405 17 249 3.2 4.8 0.00 0.03 0.00 76 1028.8
20260510052904 17 247 3.2 8.0 0.00 0.03 0.00 75 1028.8
20260510052404 17 213 3.2 8.0 0.00 0.03 0.00 76 1028.9
20260510051905 17 198 3.2 4.8 0.00 0.03 0.00 77 1028.8
20260510051404 17 204 3.2 8.0 0.00 0.03 0.00 77 1028.8
20260510050904 17 212 3.2 8.0 0.00 0.03 0.00 76 1028.9
20260510050404 17 286 6.4 9.7 0.00 0.03 0.00 77 1028.9
20260510045905 17 260 1.6 8.0 0.00 0.03 0.00 77 1028.9
20260510045404 16 222 1.6 8.0 0.00 0.03 0.00 77 1028.9
20260510044904 16 263 3.2 4.8 0.00 0.03 0.00 78 1028.9
20260510044404 16 263 4.8 11.3 0.00 0.03 0.00 78 1028.9
20260510043904 16 208 3.2 4.8 0.00 0.03 0.00 79 1029.0
20260510043405 16 198 3.2 4.8 0.00 0.03 0.00 78 1029.0
20260510042905 16 214 3.2 4.8 0.00 0.03 0.00 79 1029.0
20260510042404 16 219 3.2 4.8 0.00 0.03 0.00 79 1029.0
20260510041904 16 234 3.2 4.8 0.00 0.03 0.00 79 1029.1
20260510041404 16 236 3.2 4.8 0.00 0.03 0.00 80 1029.1
20260510040904 16 241 3.2 4.8 0.00 0.03 0.00 81 1029.2
20260510040405 16 216 0.0 4.8 0.00 0.03 0.00 82 1029.2
20260510035905 16 216 1.6 4.8 0.00 0.03 0.00 82 1029.2
20260510035404 15 198 3.2 4.8 0.00 0.03 0.00 82 1029.2
20260510034905 15 193 4.8 4.8 0.00 0.03 0.00 82 1029.2
20260510034405 15 193 4.8 8.0 0.00 0.03 0.00 82 1029.3
20260510033905 15 176 1.6 4.8 0.00 0.03 0.00 83 1029.4
20260510033404 15 282 3.2 9.7 0.00 0.03 0.00 84 1029.4
20260510032904 15 273 1.6 9.7 0.00 0.03 0.00 84 1029.5
20260510032404 14 174 0.0 4.8 0.00 0.03 0.00 85 1029.5
20260510031904 14 174 3.2 4.8 0.00 0.03 0.00 85 1029.6
20260510031405 14 176 4.8 4.8 0.00 0.03 0.00 85 1029.7
20260510030905 14 184 4.8 4.8 0.00 0.03 0.00 86 1029.8
20260510030404 14 179 3.2 4.8 0.00 0.03 0.00 87 1029.7
20260510025904 13 173 1.6 4.8 0.00 0.03 0.00 87 1029.8
20260510025405 13 179 3.2 8.0 0.00 0.03 0.00 88 1029.8
20260510024905 13 152 1.6 9.7 0.00 0.03 0.00 88 1029.9
20260510024404 13 145 4.8 8.0 0.00 0.03 0.00 88 1030.0
20260510023904 12 182 3.2 4.8 0.00 0.03 0.00 89 1030.1
20260510023405 12 193 4.8 9.7 0.00 0.03 0.00 89 1030.2
20260510022904 12 167 1.6 3.2 0.00 0.03 0.00 89 1030.2
20260510022404 12 166 1.6 4.8 0.00 0.03 0.00 89 1030.3
20260510021904 12 164 4.8 8.0 0.00 0.03 0.00 89 1030.4
20260510021404 12 237 3.2 4.8 0.00 0.03 0.00 89 1030.5
20260510020904 12 237 3.2 4.8 0.00 0.03 0.00 89 1030.6
20260510020405 12 152 1.6 4.8 0.00 0.03 0.00 89 1030.6
20260510015905 12 148 1.6 4.8 0.00 0.03 0.00 90 1030.7
20260510015404 12 149 3.2 4.8 0.00 0.03 0.00 90 1030.8
20260510014904 11 150 3.2 4.8 0.00 0.03 0.00 90 1030.8
20260510014404 11 153 1.6 4.8 0.00 0.03 0.00 90 1030.9
20260510013904 11 153 1.6 8.0 0.00 0.03 0.00 90 1031.0
20260510013404 11 155 3.2 4.8 0.00 0.03 0.00 91 1031.0
20260510012904 11 134 3.2 4.8 0.00 0.03 0.00 90 1031.1
20260510012404 11 128 4.8 4.8 0.00 0.03 0.00 91 1031.1
20260510011904 11 114 3.2 4.8 0.00 0.03 0.00 91 1031.1
20260510011404 11 116 4.8 12.9 0.00 0.03 0.00 91 1031.2
20260510010904 11 163 1.6 3.2 0.00 0.03 0.00 91 1031.1
20260510010405 11 162 1.6 3.2 0.00 0.03 0.00 91 1031.2
20260510005905 11 161 1.6 3.2 0.00 0.03 0.00 91 1031.2
20260510005404 11 161 1.6 4.8 0.00 0.03 0.00 91 1031.1
20260510004904 11 161 3.2 4.8 0.00 0.03 0.00 91 1031.2
20260510004404 11 140 4.8 8.0 0.00 0.03 0.00 92 1031.2
20260510003904 11 134 3.2 4.8 0.00 0.03 0.00 92 1031.2
20260510003405 11 135 3.2 4.8 0.00 0.03 0.00 92 1031.2
20260510002905 11 137 6.4 11.3 0.00 0.03 0.00 92 1031.2
20260510002404 10 110 4.8 8.0 0.00 0.03 0.00 92 1031.2
20260510001904 10 131 6.4 8.0 0.00 0.03 0.00 92 1031.1
20260510001404 10 198 3.2 4.8 0.00 0.03 0.00 92 1031.1
20260510000904 10 203 4.8 4.8 0.00 0.03 0.00 92 1031.1
20260510000404 10 198 4.8 8.0 0.00 0.03 0.00 92 1031.1
20260509235904 10 161 3.2 4.8 0.00 0.03 0.00 92 1031.1
20260509235404 10 156 3.2 4.8 0.00 0.03 0.00 92 1031.2
20260509234904 10 155 4.8 9.7 0.00 0.03 0.00 92 1031.2
20260509234404 10 134 4.8 8.0 0.00 0.03 0.00 92 1031.2
20260509233905 10 143 4.8 8.0 0.00 0.03 0.00 92 1031.2
20260509233404 10 134 4.8 9.7 0.00 0.03 0.00 92 1031.2
20260509232904 10 145 3.2 4.8 0.00 0.03 0.03 92 1031.2
20260509232404 10 146 6.4 9.7 0.00 0.03 0.03 92 1031.1
20260509231904 10 155 6.4 9.7 0.00 0.03 0.03 92 1031.1
20260509231404 10 158 6.4 9.7 0.00 0.03 0.03 93 1031.0
20260509230904 10 151 6.4 9.7 0.00 0.03 0.03 93 1031.0
20260509230404 10 148 4.8 8.0 0.00 0.03 0.03 93 1031.0
20260509225903 10 153 6.4 8.0 0.00 0.03 0.03 93 1030.9
20260509225404 10 168 6.4 11.3 0.00 0.03 0.03 93 1030.9
20260509224904 10 159 6.4 14.5 0.00 0.03 0.03 93 1030.8
20260509224404 10 141 4.8 8.0 0.00 0.03 0.03 93 1030.8
20260509223904 10 169 4.8 4.8 0.00 0.03 0.03 93 1030.8
20260509223403 10 166 6.4 11.3 0.00 0.03 0.03 93 1030.7
20260509222904 10 175 8.0 9.7 0.00 0.03 0.03 93 1030.7
20260509222404 10 172 4.8 4.8 0.00 0.03 0.03 93 1030.6
20260509221904 10 162 6.4 9.7 0.00 0.03 0.03 93 1030.6
20260509221404 10 165 4.8 8.0 0.00 0.03 0.03 93 1030.6
20260509220904 10 167 3.2 4.8 0.00 0.03 0.03 93 1030.5
20260509220404 10 167 3.2 8.0 0.00 0.03 0.03 93 1030.4
20260509215904 10 167 4.8 8.0 0.00 0.03 0.03 93 1030.5
20260509215404 10 171 4.8 4.8 0.00 0.03 0.03 93 1030.5
20260509214905 10 169 1.6 4.8 0.00 0.03 0.03 93 1030.4
20260509214403 10 170 1.6 4.8 0.00 0.03 0.03 93 1030.3
20260509213903 10 169 3.2 4.8 0.00 0.03 0.03 93 1030.2
20260509213405 10 172 4.8 8.0 0.00 0.03 0.03 93 1030.1
20260509212905 10 170 4.8 8.0 0.00 0.03 0.03 93 1030.1
20260509212406 10 160 3.2 4.8 0.00 0.03 0.03 93 1030.1
20260509211905 10 161 3.2 4.8 0.00 0.03 0.03 93 1030.0
20260509211405 10 165 4.8 4.8 0.00 0.03 0.03 93 1030.0
20260509210906 10 167 3.2 8.0 0.00 0.03 0.03 93 1029.9
20260509210406 10 169 4.8 9.7 0.00 0.03 0.03 99 1029.9
20260509205906 10 185 4.8 8.0 0.00 0.03 0.03 99 1029.8
20260509205405 10 182 4.8 8.0 0.00 0.03 0.03 95 1029.8
20260509204906 10 184 3.2 4.8 0.00 0.03 0.03 96 1029.8
20260509204405 10 184 4.8 8.0 0.00 0.03 0.03 93 1029.8
20260509203905 10 193 4.8 8.0 0.00 0.03 0.03 100 1029.7
20260509203405 10 171 3.2 4.8 0.00 0.03 0.03 93 1029.7
20260509202906 10 184 4.8 8.0 0.00 0.03 0.03 93 1029.6
20260509202405 10 199 3.2 8.0 0.00 0.03 0.03 98 1029.6
20260509201905 10 195 4.8 9.7 0.00 0.03 0.03 100 1029.5
20260509201406 10 178 8.0 9.7 0.00 0.03 0.03 96 1029.5
20260509200905 10 183 4.8 9.7 0.00 0.03 0.03 97 1029.5
20260509200405 10 188 4.8 8.0 0.00 0.03 0.03 93 1029.4
20260509195905 10 178 6.4 12.9 0.00 0.03 0.03 93 1029.3
20260509195406 10 171 3.2 4.8 0.00 0.03 0.03 93 1029.4
20260509194906 10 168 6.4 8.0 0.00 0.03 0.03 93 1029.3
20260509194406 10 164 3.2 4.8 0.00 0.05 0.03 93 1029.3
20260509193905 10 160 3.2 4.8 0.00 0.05 0.03 93 1029.2
20260509193405 10 153 4.8 8.0 0.00 0.05 0.03 93 1029.2
20260509192905 10 181 6.4 9.7 0.00 0.05 0.03 93 1029.1
20260509192405 10 178 6.4 8.0 0.00 0.05 0.03 93 1029.1
20260509191905 10 179 8.0 9.7 0.00 0.05 0.03 93 1029.0
20260509191405 10 165 4.8 8.0 0.00 0.05 0.03 93 1029.0
20260509190906 10 174 4.8 8.0 0.00 0.05 0.03 93 1029.0
20260509190405 10 179 4.8 8.0 0.00 0.05 0.03 93 1028.9
20260509185905 10 180 4.8 8.0 0.00 0.05 0.03 93 1028.8
20260509185405 10 178 4.8 4.8 0.00 0.05 0.03 93 1028.8
20260509184905 10 178 4.8 4.8 0.00 0.05 0.03 92 1028.8
20260509184405 10 177 3.2 4.8 0.00 0.05 0.03 92 1028.7
20260509183905 10 176 3.2 4.8 0.00 0.05 0.03 92 1028.7
20260509183406 10 174 3.2 4.8 0.00 0.05 0.03 92 1028.7
20260509182905 10 173 1.6 4.8 0.00 0.05 0.03 92 1028.7
20260509182405 10 172 3.2 4.8 0.00 0.05 0.03 92 1028.7
20260509181905 10 173 1.6 4.8 0.00 0.05 0.03 92 1028.7
20260509181406 10 173 1.6 3.2 0.00 0.05 0.03 92 1028.8
20260509180905 10 173 1.6 3.2 0.00 0.05 0.03 92 1028.7
20260509180405 10 173 1.6 4.8 0.00 0.05 0.03 92 1028.7
20260509175905 10 171 3.2 4.8 0.00 0.05 0.03 91 1028.7
20260509175406 10 170 3.2 4.8 0.00 0.05 0.03 91 1028.6
20260509174905 9 169 6.4 9.7 0.00 0.05 0.03 91 1028.6
20260509174405 9 178 4.8 4.8 0.00 0.05 0.03 91 1028.7
20260509173905 9 182 3.2 4.8 0.00 0.05 0.03 91 1028.6
20260509173405 9 182 3.2 4.8 0.00 0.05 0.03 91 1028.6
20260509172905 9 182 4.8 8.0 0.03 0.05 0.03 91 1028.6
20260509172405 9 183 4.8 8.0 0.03 0.05 0.03 91 1028.6
20260509171905 9 182 8.0 9.7 0.03 0.08 0.03 91 1028.6
20260509171405 9 190 8.0 9.7 0.03 0.08 0.03 91 1028.6
20260509170905 9 193 4.8 8.0 0.03 0.10 0.03 91 1028.6
20260509170405 9 194 4.8 9.7 0.03 0.10 0.03 91 1028.6
20260509165905 9 192 4.8 8.0 0.03 0.10 0.03 91 1028.7
20260509165405 9 193 4.8 8.0 0.03 0.10 0.03 90 1028.6
20260509164905 9 199 3.2 4.8 0.03 0.10 0.03 91 1028.7
20260509164405 9 198 4.8 8.0 0.03 0.10 0.03 91 1028.7
20260509163905 8 208 4.8 8.0 0.03 0.10 0.03 90 1028.7
20260509163405 8 207 4.8 4.8 0.03 0.10 0.03 90 1028.6
20260509162905 8 210 3.2 4.8 0.00 0.08 0.00 90 1028.5
20260509162405 8 209 1.6 3.2 0.00 0.08 0.00 90 1028.5
20260509161905 8 209 3.2 4.8 0.00 0.08 0.00 90 1028.5
20260509161406 8 209 3.2 4.8 0.00 0.08 0.00 90 1028.5
20260509160905 8 209 3.2 4.8 0.00 0.08 0.00 90 1028.5
20260509160405 8 209 4.8 4.8 0.00 0.08 0.00 90 1028.5
20260509155906 8 211 3.2 4.8 0.00 0.10 0.00 90 1028.5
20260509155405 9 211 1.6 4.8 0.00 0.10 0.00 90 1028.4
20260509154905 9 211 3.2 4.8 0.00 0.10 0.00 90 1028.4
20260509154405 9 211 3.2 4.8 0.00 0.10 0.00 90 1028.4
20260509153905 9 211 3.2 4.8 0.00 0.10 0.00 90 1028.4
20260509153405 8 211 3.2 4.8 0.00 0.10 0.00 90 1028.4
20260509152905 8 211 3.2 4.8 0.00 0.10 0.00 89 1028.4
20260509152405 8 211 3.2 4.8 0.00 0.10 0.00 89 1028.4
20260509151905 8 211 3.2 4.8 0.00 0.10 0.00 89 1028.4
20260509151405 8 212 3.2 4.8 0.00 0.10 0.00 89 1028.5
20260509150905 8 212 3.2 4.8 0.00 0.10 0.00 89 1028.5
20260509150405 8 212 4.8 4.8 0.00 0.10 0.00 89 1028.5
20260509145905 8 214 3.2 4.8 0.00 0.10 0.00 89 1028.5
20260509145405 8 215 1.6 3.2 0.00 0.10 0.00 89 1028.6
20260509144905 8 215 1.6 3.2 0.00 0.10 0.00 89 1028.6
20260509144405 8 215 1.6 3.2 0.00 0.10 0.00 89 1028.6